THORAD DELTA 1 DEB, 8151

Orbit data source: Space-Track

THORAD DELTA 1 DEB, 8151 is space debris in SSO originally from a launch on Fri, 15 Nov 1974 UTC launched from the Air Force Western Test Range (AFWTR). Debris objects in space refer to the collection of defunct objects orbiting the Earth. Examples of debris include non-operational satellites, rocket bodies, and fragments generated from explosions, collisions, or faulty payload assembly.

Loading next visibility...
Identifier
8151, 1974-089R
Orbit
SSO
Country
Flag of USUS
Related business
Manufacturer
Unknown
Mission
Spacecraft
Bus & Motor
Unknown
Mass
Unknown
Launch date (UTC)
1974-11-15 (51 years ago)
Launch vehicle
Unknown
Launch site
Air Force Western Test Range (AFWTR)
Object type
Payload
Rocket body
Debris
Shape & HBR
Unknown shape, 0.2 m
Radar Cross Section
Small (<0.1 m²)

Expand to show TLE details & history
Last TLE update: 12 hours ago

TLE from 12 hours ago
0 THORAD DELTA 1 DEB
1 08151U 74089R   25352.22176690  .00000034  00000-0  27632-3 0  9993
2 08151 101.7728  95.1637 0335960  53.8738  10.4769 12.81264547385614
Epoch: 2025-12-18T05:19Z
TLE epoch observation values (Epoch: 2025-12-18T05:19:20.660Z)
Latitude
62.69426°
Longitude
-95.43185°
Altitude
1,092.378 km
Speed
7.432 km/s
True Right ascension
04h 45m 56s
True Declination
62° 33' 36"
Sunlit
Object was in full shadow at epoch
Visualization orbit readout
Latitude
Unknown
Longitude
Unknown
Altitude
Unknown
Speed
Unknown
Apparent Right ascension
Unknown
Apparent Declination
Unknown
Sunlit
N/A
Visualization observer readout
Local Sidereal Time
16:22:00
Azimuth
Unknown
Elevation
Unknown
Doppler factor
Unknown
Orbital elements
Apogee altitude
1,592.986 km
Perigee altitude
1,074.8 km
Semi-major axis
7,712.03 km
Eccentricity
0.0336
Inclination
101.7728°
RAAN
95.1637°
Arg. of periapsis
53.8738°
True anomaly
11.20703°
Mean anomaly
10.4769°
Eccentric anomaly
10.83887°
Mean motion
3.20472 °/min
Orbital period
112.33 mins
BSTAR
0.00027632
Loading maneuver chart data...
Computing Atmospheric mass density...

Documentation

Showing up to 5 results
|